GSAT0213 (GALILEO 17) (41861 NORAD) Tracking and Keplerian Element Data

This shows tracking and keplerian element data for the satellite.

Feedback or suggestion? Click here.




ElementValue
Catalog41861
NameGSAT0213 (GALILEO 17)
Epoch Orbit1566
Epoch Day144.58288002
Epoch Year2019
RAAN172.6775
Inclination54.6018
Eccentricity0.0005433
Argument of Perigee270.8578
Mean Anonmoly89.1342
Mean Motion1.70473864
Decay Rate5E-07
L11 41861U 16069C 19144.58288002 .00000050 00000-0 00000+0 0 9998
L22 41861 54.6018 172.6775 0005433 270.8578 89.1342 1.70473864 15668

Live tracking and technical data element details for GSAT0213 (GALILEO 17) (NORAD 41861). GSAT0213 (GALILEO 17) can be tracked NOW for your location showing map with azimuth and elevation plus other details from your city location.

Track the satellite on the map from your city or location and see movement details for azimuth, elevation, latitude, longitude, range, height, and movement on the map or in text.







IsCatalogInMostPopularTable: catalog: 41861, numindb: 194
Update: records affected: 1



GetName: 41861 GSAT0213 (GALILEO 17)

Hit Count: updated at: Mon, 27 May 2019 04:13:50 GMT